Starlink 34323

operational
NORAD ID: 64219 Int'l Des: 2025-117 Owner: SPXS Country: US Constellation: starlink
LEOCIRCULAR

Starlink 34323について

説明を読み込み中...

リアルタイム位置

3D地球を読み込み中...

次回通過

高度履歴

Altitude vs Time

uPlot chart will show altitude changes over time

軌道要素

1 64219U 25117S 26062.38987464 .00032739 00000-0 11125-2 0 9999
2 64219 53.1599 68.6902 0001696 82.6086 277.5108 15.30203725 43598
Epoch: Mar 3, 2026 • Age: 32 hours

現在のステータス

高度 480.4 km
速度 7.63 km/s
衛星直下点 53.31°N, 123.74°W
打ち上げ日 May 31, 2025
運用期間 0.7 years
タイプ internet

技術仕様

分類 Payload
質量 575.00 kg
乾燥質量 530.00 kg
総質量 575.00 kg
長さ 0.30 m
直径 4.10 m
スパン 29.00 m
形状 Box + pan
製造者 SPXS
バスタイプ Starlink V2MO
フェーズステータス In Orbit
所有者/国 SPXS/US

大規模コンステレーション

Loading constellations...